« Back
NWS Peachtree City, Ga » Text Product » GA Regional Weather Roundup


Printer-friendly Version
Current Version              Previous Versions:   1  2  3  4  5  6  7  8  9  

Regional Weather Roundup

519
ASUS42 KFFC 010603
RWRGA
WEATHER ROUNDUP FOR GEORGIA
NATIONAL WEATHER SERVICE PEACHTREE CITY GA
100 AM EST SUN FEB 01 2015

NOTE: "FAIR" INDICATES FEW OR NO CLOUDS BELOW 12,000 FEET WITH NO
SIGNIFICANT WEATHER AND/OR OBSTRUCTIONS TO VISIBILITY.

* = USE WITH CAUTION. THE STATIONS MARKED WITH AN ASTERISK MAY NOT
REPORT WEATHER SUCH AS PRECIPITATION, FOG, OR THUNDER AND ARE NOT
QUALITY CONTROLLED BY NWS.

THE REMARK "TC" DENOTES TEMPERATURE READING IN DEGREES CELSIUS.

GAZ001>058-010700-
NORTH GEORGIA

CITY           SKY/WX    TMP DP  RH WIND       PRES   REMARKS
ATLANTA        CLOUDY    45  23  42 SE3       30.25F
6HR MIN TEMP:  45; 6HR MAX TEMP:  52;

ATHENS         CLOUDY    40  28  62 E3        30.27F
6HR MIN TEMP:  39; 6HR MAX TEMP:  46;

CHAMBLEE       MOCLDY    41  28  60 CALM      30.25F
6HR MIN TEMP:  39; 6HR MAX TEMP:  48;

PEACHTREE CITY MOCLDY    38  30  73 CALM      30.26F
6HR MIN TEMP:  37; 6HR MAX TEMP:  49;

ROME           CLOUDY    39  30  70 CALM      30.24F
6HR MIN TEMP:  39; 6HR MAX TEMP:  46;

WEST ATLANTA   CLOUDY    42  28  57 CALM      30.27R
6HR MIN TEMP:  39; 6HR MAX TEMP:  49;

GAINESVILLE    CLOUDY    42  22  44 NE3       30.27F
6HR MIN TEMP:  40; 6HR MAX TEMP:  46;

CARTERSVILLE   CLOUDY    41  26  55 E5        30.25F
6HR MIN TEMP:  39; 6HR MAX TEMP:  44;



CITY           SKY/WX    TMP DP  RH WIND       PRES   REMARKS
DALTON*        CLOUDY    37  32  81 CALM      30.26S
MARIETTA       CLOUDY    42  28  57 NE2       30.25S
$$

GAZ059>098-102>109-010700-
CENTRAL GEORGIA

CITY           SKY/WX    TMP DP  RH WIND       PRES   REMARKS
AUGUSTA-BUSH   CLOUDY    44  20  38 S3        30.31S
6HR MIN TEMP:  41; 6HR MAX TEMP:  48;

AUGUSTA-DANIEL CLOUDY    46  21  37 S5        30.30F
6HR MIN TEMP:  46; 6HR MAX TEMP:  52;

COLUMBUS       MOCLDY    43  26  51 E3        30.24F
6HR MIN TEMP:  43; 6HR MAX TEMP:  53;

MACON          PTCLDY    35  28  75 CALM      30.28F
6HR MIN TEMP:  33; 6HR MAX TEMP:  49;

ROBINS AFB     PTCLDY    38  31  76 CALM      30.29R


CITY           SKY/WX    TMP DP  RH WIND       PRES   REMARKS
LAGRANGE*      MOCLDY    40  33  76 CALM      30.24F
SYLVANIA*      MOCLDY    38  34  84 CALM      30.31F
MILLEDGEVILLE* PTCLDY    41  32  70 CALM      30.29S
$$

GAZ099>101-110>166-010700-
SOUTH GEORGIA

CITY           SKY/WX    TMP DP  RH WIND       PRES   REMARKS
SAVANNAH       PTCLDY    42  33  70 CALM      30.32F
6HR MIN TEMP:  41; 6HR MAX TEMP:  44;

VALDOSTA       PTCLDY    44  37  76 SE3       30.27F
6HR MIN TEMP:  44; 6HR MAX TEMP:  50;

ALMA           CLEAR     41  34  76 CALM      30.29F
6HR MIN TEMP:  39; 6HR MAX TEMP:  50;

ST SIMONS      CLEAR     48  42  80 E6        30.30F
6HR MIN TEMP:  42; 6HR MAX TEMP:  48;

FT STEWART     PTCLDY    35  31  85 CALM      30.29F
ALBANY         CLOUDY    44  33  65 E3        30.28F
HUNTER AFB     PTCLDY    39  35  86 CALM      30.29F
MOODY AFB      PTCLDY    43  36  78 E6        30.27F
BRUNSWICK      CLEAR     37  36  93 CALM      30.31F


CITY           SKY/WX    TMP DP  RH WIND       PRES   REMARKS
BAINBRIDGE*    CLEAR     45  37  76 E5        30.25F
MOULTRIE*      CLOUDY    45  37  76 E3        30.28S
VIDALIA*       MOCLDY    39  34  81 CALM      30.30F
WAYCROSS*      CLEAR     44  39  84 CALM      30.29F
DOUGLAS*       PTCLDY    43  34  70 E3        30.30F
$$



USA.gov is the U.S. government's official web portal to all federal, state and local government web resources and services.